Météo par heure à Juliszew

Ce jour, 20 Juin, Dimanche

Heure Température Précipitation Vent Pression Humidité
00:00 +24°C° 0 mm 3 m/s 756 mmHg 75%
01:00 +22°C° 0 mm 3 m/s 756 mmHg 77%
02:00 +21°C° 0 mm 3 m/s 756 mmHg 81%
03:00 +20°C° 0 mm 3 m/s 755 mmHg 84%
04:00 +19°C° 0 mm 3 m/s 755 mmHg 88%
05:00 +21°C° 0 mm 3 m/s 755 mmHg 83%
06:00 +22°C° 0 mm 4 m/s 755 mmHg 77%
07:00 +25°C° 0 mm 4 m/s 755 mmHg 72%
08:00 +26°C° 0 mm 4 m/s 755 mmHg 66%
09:00 +27°C° 0 mm 4 m/s 755 mmHg 59%
10:00 +28°C° 0 mm 4 m/s 755 mmHg 53%
11:00 +29°C° 0 mm 4 m/s 755 mmHg 51%
12:00 +30°C° 0 mm 5 m/s 755 mmHg 48%
13:00 +32°C° 0 mm 5 m/s 754 mmHg 46%
14:00 +32°C° 0 mm 5 m/s 754 mmHg 46%
15:00 +32°C° 0 mm 4 m/s 754 mmHg 46%
16:00 +32°C° 0 mm 4 m/s 754 mmHg 46%
17:00 +29°C° 0 mm 3 m/s 753 mmHg 54%
18:00 +28°C° 0 mm 3 m/s 753 mmHg 62%
19:00 +27°C° 0 mm 3 m/s 753 mmHg 69%
20:00 +25°C° 0 mm 3 m/s 753 mmHg 74%
21:00 +24°C° 0 mm 3 m/s 753 mmHg 79%
22:00 +22°C° 0 mm 3 m/s 753 mmHg 84%
23:00 +22°C° 0 mm 3 m/s 753 mmHg 87%

Demain, 21 Juin, Lundi

Heure Température Précipitation Vent Pression Humidité
00:00 +21°C° 0 mm 3 m/s 753 mmHg 90%
01:00 +20°C° 0 mm 3 m/s 752 mmHg 93%
02:00 +20°C° 0 mm 3 m/s 752 mmHg 92%
03:00 +20°C° 0 mm 3 m/s 752 mmHg 92%
04:00 +20°C° 0 mm 3 m/s 752 mmHg 92%
05:00 +21°C° 0 mm 3 m/s 752 mmHg 86%
06:00 +23°C° 0 mm 4 m/s 752 mmHg 79%
07:00 +25°C° 0 mm 5 m/s 752 mmHg 73%
08:00 +26°C° 0 mm 5 m/s 752 mmHg 68%
09:00 +27°C° 0 mm 5 m/s 752 mmHg 63%
10:00 +29°C° 0 mm 5 m/s 752 mmHg 58%
11:00 +29°C° 0 mm 5 m/s 751 mmHg 56%
12:00 +30°C° 0 mm 5 m/s 751 mmHg 53%
13:00 +32°C° 0 mm 4 m/s 751 mmHg 51%
14:00 +30°C° 0 mm 4 m/s 751 mmHg 54%
15:00 +30°C° 0 mm 4 m/s 750 mmHg 57%
16:00 +29°C° 0 mm 4 m/s 750 mmHg 60%
17:00 +28°C° 0.1 mm 4 m/s 750 mmHg 65%
18:00 +27°C° 0.1 mm 3 m/s 750 mmHg 70%
19:00 +26°C° 0.1 mm 3 m/s 750 mmHg 76%
20:00 +25°C° 0.2 mm 3 m/s 750 mmHg 80%
21:00 +24°C° 0.2 mm 3 m/s 750 mmHg 84%
22:00 +21°C° 0.2 mm 3 m/s 750 mmHg 89%
23:00 +21°C° 0.5 mm 2 m/s 750 mmHg 91%

Après-demain, 22 Juin, Mardi

Heure Température Précipitation Vent Pression Humidité
00:00 +21°C° 0.5 mm 2 m/s 750 mmHg 92%
01:00 +20°C° 0.5 mm 2 m/s 750 mmHg 94%
02:00 +20°C° 0.2 mm 2 m/s 750 mmHg 95%
03:00 +20°C° 0.2 mm 2 m/s 750 mmHg 95%
04:00 +19°C° 0.2 mm 2 m/s 751 mmHg 96%
05:00 +20°C° 0.3 mm 2 m/s 751 mmHg 94%
06:00 +21°C° 0.3 mm 2 m/s 751 mmHg 93%
07:00 +21°C° 0.3 mm 2 m/s 752 mmHg 91%
08:00 +21°C° 0.1 mm 2 m/s 752 mmHg 91%
09:00 +23°C° 0.1 mm 2 m/s 752 mmHg 90%
10:00 +22°C° 0.1 mm 3 m/s 753 mmHg 89%
11:00 +24°C° 0 mm 3 m/s 753 mmHg 83%
12:00 +26°C° 0 mm 3 m/s 753 mmHg 77%
13:00 +27°C° 0 mm 3 m/s 753 mmHg 71%
14:00 +27°C° 0 mm 3 m/s 753 mmHg 67%
15:00 +28°C° 0 mm 3 m/s 753 mmHg 64%
16:00 +29°C° 0 mm 3 m/s 753 mmHg 60%
17:00 +28°C° 0.1 mm 3 m/s 753 mmHg 66%
18:00 +27°C° 0.1 mm 2 m/s 753 mmHg 72%
19:00 +26°C° 0.1 mm 2 m/s 754 mmHg 77%
20:00 +25°C° 0 mm 2 m/s 754 mmHg 83%
21:00 +23°C° 0 mm 2 m/s 754 mmHg 88%
22:00 +21°C° 0 mm 3 m/s 754 mmHg 93%
23:00 +20°C° 0 mm 3 m/s 754 mmHg 95%

23 Juin, Mercredi

Heure Température Précipitation Vent Pression Humidité
00:00 +20°C° 0 mm 3 m/s 754 mmHg 96%
01:00 +19°C° 0 mm 3 m/s 754 mmHg 97%
02:00 +19°C° 0 mm 3 m/s 754 mmHg 97%
03:00 +18°C° 0 mm 3 m/s 754 mmHg 98%
04:00 +18°C° 0 mm 3 m/s 754 mmHg 98%
05:00 +20°C° 0 mm 3 m/s 754 mmHg 93%
06:00 +21°C° 0 mm 3 m/s 754 mmHg 88%
07:00 +24°C° 0 mm 3 m/s 754 mmHg 83%
08:00 +25°C° 0 mm 3 m/s 754 mmHg 78%
09:00 +27°C° 0 mm 3 m/s 754 mmHg 72%
10:00 +28°C° 0 mm 2 m/s 754 mmHg 67%
11:00 +29°C° 0.1 mm 2 m/s 754 mmHg 64%
12:00 +30°C° 0.1 mm 2 m/s 754 mmHg 62%
13:00 +31°C° 0.1 mm 2 m/s 754 mmHg 59%
14:00 +31°C° 0.3 mm 2 m/s 754 mmHg 58%
15:00 +31°C° 0.3 mm 2 m/s 754 mmHg 57%
16:00 +32°C° 0.3 mm 2 m/s 754 mmHg 55%
17:00 +29°C° 1 mm 3 m/s 755 mmHg 66%
18:00 +27°C° 1 mm 4 m/s 755 mmHg 76%
19:00 +23°C° 1 mm 4 m/s 756 mmHg 86%
20:00 +22°C° 0.1 mm 4 m/s 756 mmHg 88%
21:00 +20°C° 0.1 mm 4 m/s 756 mmHg 90%
22:00 +19°C° 0.1 mm 4 m/s 757 mmHg 92%
23:00 +18°C° 0 mm 4 m/s 757 mmHg 93%

24 Juin, Jeudi

Heure Température Précipitation Vent Pression Humidité
00:00 +17°C° 0 mm 4 m/s 757 mmHg 93%
01:00 +15°C° 0 mm 4 m/s 757 mmHg 93%
02:00 +14°C° 0 mm 3 m/s 757 mmHg 94%
03:00 +13°C° 0 mm 3 m/s 758 mmHg 96%
04:00 +14°C° 0 mm 2 m/s 758 mmHg 97%
05:00 +14°C° 0 mm 3 m/s 758 mmHg 93%
06:00 +16°C° 0 mm 3 m/s 758 mmHg 89%
07:00 +18°C° 0 mm 3 m/s 758 mmHg 86%
08:00 +19°C° 0 mm 3 m/s 758 mmHg 79%
09:00 +21°C° 0 mm 3 m/s 758 mmHg 72%
10:00 +24°C° 0 mm 2 m/s 758 mmHg 65%
11:00 +25°C° 0 mm 2 m/s 758 mmHg 61%
12:00 +26°C° 0 mm 2 m/s 758 mmHg 56%
13:00 +27°C° 0 mm 2 m/s 758 mmHg 52%
14:00 +28°C° 0 mm 1 m/s 757 mmHg 51%
15:00 +28°C° 0 mm 1 m/s 757 mmHg 51%
16:00 +26°C° 0 mm 0 m/s 757 mmHg 50%
17:00 +27°C° 0 mm 1 m/s 756 mmHg 56%
18:00 +26°C° 0 mm 1 m/s 756 mmHg 62%
19:00 +25°C° 0 mm 2 m/s 755 mmHg 68%
20:00 +24°C° 0.3 mm 2 m/s 755 mmHg 73%
21:00 +23°C° 0.3 mm 2 m/s 755 mmHg 78%
22:00 +20°C° 0.3 mm 3 m/s 755 mmHg 83%
23:00 +20°C° 5.4 mm 4 m/s 755 mmHg 87%

25 Juin, Vendredi

Heure Température Précipitation Vent Pression Humidité
00:00 +20°C° 5.4 mm 5 m/s 755 mmHg 92%
01:00 +19°C° 5.4 mm 6 m/s 755 mmHg 96%
02:00 +19°C° 1.8 mm 5 m/s 754 mmHg 95%
03:00 +19°C° 1.8 mm 5 m/s 754 mmHg 94%
04:00 +19°C° 1.8 mm 4 m/s 753 mmHg 94%
05:00 +20°C° 0 mm 4 m/s 754 mmHg 90%
06:00 +21°C° 0 mm 3 m/s 754 mmHg 87%
07:00 +23°C° 0 mm 2 m/s 754 mmHg 83%
08:00 +21°C° 0.2 mm 3 m/s 754 mmHg 85%
09:00 +21°C° 0.2 mm 3 m/s 755 mmHg 87%
10:00 +20°C° 0.2 mm 4 m/s 755 mmHg 88%
11:00 +19°C° 0 mm 5 m/s 755 mmHg 88%
12:00 +17°C° 0 mm 6 m/s 756 mmHg 88%
13:00 +16°C° 0 mm 7 m/s 756 mmHg 88%
14:00 +17°C° 0 mm 7 m/s 757 mmHg 84%
15:00 +17°C° 0 mm 6 m/s 757 mmHg 81%
16:00 +17°C° 0 mm 6 m/s 757 mmHg 77%
17:00 +17°C° 0 mm 5 m/s 757 mmHg 75%
18:00 +17°C° 0 mm 5 m/s 757 mmHg 73%
19:00 +18°C° 0 mm 4 m/s 757 mmHg 71%
20:00 +17°C° 0 mm 3 m/s 758 mmHg 77%
21:00 +16°C° 0 mm 2 m/s 758 mmHg 82%
22:00 +15°C° 0 mm 2 m/s 758 mmHg 87%
23:00 +14°C° 0 mm 2 m/s 759 mmHg 89%
Voir plus

Nous avons besoin de votre consentement

Meteoprog et ses fournisseurs de services peuvent stocker et accéder à des données personnelles telles que des cookies, des identifiants d'appareils ou d'autres technologies similaires sur votre appareil et traiter ces données pour personnaliser le contenu et les publicités, ainsi que pour fournir des fonctionnalités de médias sociaux et analyser le trafic.

  • Stocker et/ou accéder à des informations sur votre appareil

    Des cookies, des identifiants d'appareils ou d'autres informations peuvent être stockés ou accessibles sur votre appareil aux fins indiquées ci-dessus.

  • Annonces et contenus personnalisés, mesure des annonces et des contenus, connaissance de l'audience et développement de produits

    Les annonces et le contenu peuvent être personnalisés en fonction d'un profil. D'autres données peuvent être ajoutées pour mieux personnaliser les annonces et le contenu. Les performances des publicités et du contenu peuvent être mesurées. Il est possible d'obtenir des informations sur le public qui a vu les publicités et le contenu. Ces données peuvent être utilisées pour développer ou améliorer l'expérience de l'utilisateur, les systèmes et les logiciels.

En cliquant sur "J'accepte", vous autorisez l'utilisation de cookies, des identifiants d'appareils, des balises web ou d'autres technologies similaires. Vos paramètres peuvent être modifiés dans le navigateur de votre appareil.

Dans certains cas, des intérêts légitimes peuvent être invoqués plutôt qu'un consentement. Vous pouvez en savoir plus à ce sujet dans notre Politique de confidentialité et de cookies.